Location: Kailua
(21.4020°N, 157.7390°W)
Time: 18:12:59
(UTC-10:00)

Cosmos 2297 Rocket - Visible Passes

Search period start: 27 January 2015 00:00
Search period end: 06 February 2015 00:00
Orbit: 839 x 845 km, 71.0° (Epoch: 25 January)

Date Brightness Start Highest point End Pass type
(mag) Time Alt. Az. Time Alt. Az. Time Alt. Az.
27 Jan 3.4 18:46:39 10° NNE 18:50:27 19° ENE 18:54:29 10° ESE visible
27 Jan 3.6 20:29:27 10° NW 20:34:37 36° WSW 20:39:41 10° S visible
28 Jan 3.5 20:14:21 10° NW 20:19:35 39° WSW 20:24:44 10° S visible
29 Jan 3.4 19:59:15 10° NW 20:04:34 42° WSW 20:09:47 10° S visible
30 Jan 3.3 19:44:11 10° NNW 19:49:32 45° WSW 19:54:50 10° S visible
31 Jan 3.2 19:29:06 10° NNW 19:34:31 48° WSW 19:39:52 10° S visible
01 Feb 5.6 06:44:29 10° SE 06:47:04 14° ESE 06:50:03 10° ENE visible
01 Feb 3.1 19:14:01 10° NNW 19:19:29 51° WSW 19:24:54 10° S visible
02 Feb 5.7 06:29:50 10° SE 06:32:02 13° ESE 06:34:41 10° ENE visible
02 Feb 3.1 18:58:57 10° NNW 19:04:27 55° WSW 19:09:55 10° S visible
03 Feb 5.8 06:15:15 10° ESE 06:17:01 12° ESE 06:19:14 10° E visible
03 Feb 3.0 18:43:53 10° NNW 18:49:26 59° WSW 18:54:56 10° S visible
04 Feb 5.8 06:00:51 10° ESE 06:01:59 11° ESE 06:03:38 10° E visible
